• In Denmark
  • List of Countries
  • For 7 days
  • Water Temperature
  • Satellite Maps
  • Weather Map
  • Weather Widgets
  • user-avatar
    Login

    Hourly Weather Juraszowa

    Today, 22 May, Tuesday

    Time Temperature Precipitation Wind Pressure Humidity
    00:00 +10°C° 0 mm 1 mps 727 mmHg 93%
    01:00 +10°C° 0 mm 1 mps 726 mmHg 93%
    02:00 +10°C° 0 mm 1 mps 726 mmHg 93%
    03:00 +10°C° 0 mm 1 mps 726 mmHg 93%
    04:00 +9°C° 0 mm 1 mps 726 mmHg 93%
    05:00 +12°C° 0 mm 1 mps 726 mmHg 88%
    06:00 +14°C° 0 mm 1 mps 727 mmHg 83%
    07:00 +16°C° 0 mm 1 mps 727 mmHg 77%
    08:00 +17°C° 0 mm 2 mps 727 mmHg 71%
    09:00 +19°C° 0 mm 2 mps 727 mmHg 65%
    10:00 +21°C° 0 mm 2 mps 727 mmHg 59%
    11:00 +21°C° 0.1 mm 2 mps 727 mmHg 57%
    12:00 +23°C° 0.1 mm 2 mps 727 mmHg 54%
    13:00 +24°C° 0.1 mm 2 mps 727 mmHg 51%
    14:00 +24°C° 0.2 mm 2 mps 727 mmHg 54%
    15:00 +23°C° 0.2 mm 2 mps 727 mmHg 57%
    16:00 +23°C° 0.2 mm 2 mps 727 mmHg 60%
    17:00 +20°C° 0.3 mm 2 mps 726 mmHg 69%
    18:00 +19°C° 0.3 mm 2 mps 726 mmHg 77%
    19:00 +17°C° 0.3 mm 2 mps 726 mmHg 86%
    20:00 +16°C° 0.1 mm 2 mps 727 mmHg 88%
    21:00 +16°C° 0.1 mm 2 mps 727 mmHg 90%
    22:00 +15°C° 0.1 mm 2 mps 727 mmHg 92%
    23:00 +15°C° 0.1 mm 1 mps 727 mmHg 92%

    Tomorrow, 23 May, Wednesday

    Time Temperature Precipitation Wind Pressure Humidity
    00:00 +15°C° 0.1 mm 1 mps 727 mmHg 92%
    01:00 +15°C° 0.1 mm 1 mps 727 mmHg 92%
    02:00 +15°C° 0.2 mm 1 mps 727 mmHg 92%
    03:00 +15°C° 0.2 mm 1 mps 727 mmHg 92%
    04:00 +15°C° 0.2 mm 1 mps 727 mmHg 92%
    05:00 +15°C° 0.4 mm 1 mps 728 mmHg 91%
    06:00 +16°C° 0.4 mm 1 mps 728 mmHg 90%
    07:00 +18°C° 0.4 mm 1 mps 728 mmHg 88%
    08:00 +19°C° 0.6 mm 1 mps 729 mmHg 84%
    09:00 +21°C° 0.6 mm 1 mps 729 mmHg 81%
    10:00 +22°C° 0.6 mm 1 mps 729 mmHg 77%
    11:00 +23°C° 0.9 mm 1 mps 729 mmHg 74%
    12:00 +23°C° 0.9 mm 1 mps 729 mmHg 72%
    13:00 +24°C° 0.9 mm 1 mps 729 mmHg 69%
    14:00 +24°C° 0.6 mm 1 mps 729 mmHg 71%
    15:00 +23°C° 0.6 mm 2 mps 729 mmHg 73%
    16:00 +23°C° 0.6 mm 2 mps 728 mmHg 74%
    17:00 +21°C° 0.2 mm 2 mps 728 mmHg 80%
    18:00 +21°C° 0.2 mm 1 mps 728 mmHg 86%
    19:00 +19°C° 0.2 mm 1 mps 728 mmHg 91%
    20:00 +19°C° 0.3 mm 1 mps 728 mmHg 93%
    21:00 +18°C° 0.3 mm 1 mps 729 mmHg 94%
    22:00 +16°C° 0.3 mm 1 mps 729 mmHg 96%
    23:00 +16°C° 0 mm 1 mps 729 mmHg 96%

    Day after tomorrow, 24 May, Thursday

    Time Temperature Precipitation Wind Pressure Humidity
    00:00 +15°C° 0 mm 1 mps 729 mmHg 96%
    01:00 +15°C° 0 mm 1 mps 729 mmHg 97%
    02:00 +15°C° 0 mm 1 mps 729 mmHg 97%
    03:00 +15°C° 0 mm 1 mps 729 mmHg 97%
    04:00 +15°C° 0 mm 2 mps 729 mmHg 97%
    05:00 +15°C° 0 mm 2 mps 729 mmHg 95%
    06:00 +16°C° 0 mm 2 mps 729 mmHg 93%
    07:00 +17°C° 0 mm 2 mps 729 mmHg 91%
    08:00 +18°C° 0.1 mm 2 mps 729 mmHg 87%
    09:00 +19°C° 0.1 mm 2 mps 730 mmHg 83%
    10:00 +20°C° 0.1 mm 2 mps 730 mmHg 79%
    11:00 +21°C° 0.4 mm 3 mps 729 mmHg 75%
    12:00 +21°C° 0.4 mm 3 mps 729 mmHg 72%
    13:00 +22°C° 0.4 mm 4 mps 729 mmHg 68%
    14:00 +22°C° 0.4 mm 4 mps 729 mmHg 71%
    15:00 +22°C° 0.4 mm 4 mps 729 mmHg 74%
    16:00 +21°C° 0.4 mm 4 mps 729 mmHg 78%
    17:00 +20°C° 0.2 mm 3 mps 729 mmHg 82%
    18:00 +19°C° 0.2 mm 3 mps 729 mmHg 87%
    19:00 +18°C° 0.2 mm 2 mps 729 mmHg 91%
    20:00 +17°C° 0 mm 2 mps 729 mmHg 92%
    21:00 +16°C° 0 mm 2 mps 729 mmHg 94%
    22:00 +15°C° 0 mm 1 mps 729 mmHg 95%
    23:00 +14°C° 0 mm 1 mps 729 mmHg 95%

    25 May, Friday

    Time Temperature Precipitation Wind Pressure Humidity
    00:00 +14°C° 0 mm 1 mps 729 mmHg 95%
    01:00 +14°C° 0 mm 1 mps 729 mmHg 96%
    02:00 +13°C° 0 mm 1 mps 729 mmHg 96%
    03:00 +13°C° 0 mm 1 mps 729 mmHg 96%
    04:00 +12°C° 0 mm 1 mps 729 mmHg 96%
    05:00 +14°C° 0 mm 1 mps 729 mmHg 92%
    06:00 +16°C° 0 mm 2 mps 730 mmHg 88%
    07:00 +17°C° 0 mm 2 mps 730 mmHg 83%
    08:00 +19°C° 0 mm 3 mps 730 mmHg 76%
    09:00 +20°C° 0 mm 3 mps 730 mmHg 68%
    10:00 +22°C° 0 mm 4 mps 730 mmHg 60%
    11:00 +22°C° 0 mm 4 mps 730 mmHg 58%
    12:00 +23°C° 0 mm 4 mps 730 mmHg 57%
    13:00 +23°C° 0 mm 4 mps 730 mmHg 55%
    14:00 +23°C° 0 mm 4 mps 729 mmHg 56%
    15:00 +23°C° 0 mm 4 mps 729 mmHg 57%
    16:00 +23°C° 0 mm 4 mps 729 mmHg 58%
    17:00 +21°C° 0 mm 3 mps 729 mmHg 67%
    18:00 +20°C° 0 mm 3 mps 729 mmHg 75%
    19:00 +18°C° 0 mm 2 mps 729 mmHg 83%
    20:00 +17°C° 0 mm 2 mps 729 mmHg 87%
    21:00 +16°C° 0 mm 2 mps 729 mmHg 90%
    22:00 +15°C° 0 mm 1 mps 729 mmHg 94%
    23:00 +14°C° 0 mm 1 mps 729 mmHg 94%

    26 May, Saturday

    Time Temperature Precipitation Wind Pressure Humidity
    00:00 +14°C° 0 mm 1 mps 729 mmHg 95%
    01:00 +13°C° 0 mm 1 mps 729 mmHg 95%
    02:00 +13°C° 0 mm 1 mps 729 mmHg 95%
    03:00 +13°C° 0 mm 1 mps 729 mmHg 95%
    04:00 +12°C° 0 mm 1 mps 729 mmHg 96%
    05:00 +14°C° 0 mm 1 mps 730 mmHg 92%
    06:00 +16°C° 0 mm 1 mps 730 mmHg 88%
    07:00 +17°C° 0 mm 2 mps 730 mmHg 85%
    08:00 +18°C° 0 mm 2 mps 730 mmHg 80%
    09:00 +20°C° 0 mm 2 mps 730 mmHg 75%
    10:00 +21°C° 0 mm 3 mps 731 mmHg 70%
    11:00 +21°C° 0 mm 3 mps 731 mmHg 69%
    12:00 +22°C° 0 mm 3 mps 730 mmHg 67%
    13:00 +24°C° 0 mm 3 mps 730 mmHg 66%
    14:00 +22°C° 0 mm 3 mps 730 mmHg 67%
    15:00 +22°C° 0 mm 3 mps 730 mmHg 69%
    16:00 +22°C° 0 mm 3 mps 730 mmHg 70%
    17:00 +21°C° 0.1 mm 3 mps 730 mmHg 77%
    18:00 +20°C° 0.1 mm 2 mps 730 mmHg 84%
    19:00 +18°C° 0.1 mm 2 mps 730 mmHg 91%
    20:00 +17°C° 0 mm 2 mps 730 mmHg 93%
    21:00 +16°C° 0 mm 1 mps 731 mmHg 95%
    22:00 +15°C° 0 mm 1 mps 731 mmHg 97%
    23:00 +15°C° 0 mm 1 mps 731 mmHg 97%

    27 May, Sunday

    Time Temperature Precipitation Wind Pressure Humidity
    00:00 +15°C° 0 mm 1 mps 731 mmHg 97%
    01:00 +14°C° 0 mm 1 mps 731 mmHg 97%
    02:00 +14°C° 0 mm 1 mps 731 mmHg 97%
    03:00 +14°C° 0 mm 1 mps 731 mmHg 97%
    04:00 +14°C° 0 mm 1 mps 731 mmHg 97%
    05:00 +15°C° 0 mm 1 mps 731 mmHg 95%
    06:00 +16°C° 0 mm 1 mps 731 mmHg 92%
    07:00 +18°C° 0 mm 1 mps 731 mmHg 89%
    08:00 +19°C° 0 mm 1 mps 731 mmHg 85%
    09:00 +20°C° 0 mm 1 mps 731 mmHg 81%
    10:00 +21°C° 0 mm 1 mps 731 mmHg 77%
    11:00 +22°C° 0 mm 1 mps 731 mmHg 74%
    12:00 +23°C° 0 mm 1 mps 731 mmHg 70%
    13:00 +24°C° 0 mm 1 mps 730 mmHg 66%
    14:00 +24°C° 0 mm 2 mps 730 mmHg 66%
    15:00 +24°C° 0 mm 2 mps 730 mmHg 66%
    16:00 +24°C° 0 mm 2 mps 730 mmHg 65%
    17:00 +23°C° 0 mm 2 mps 730 mmHg 72%
    18:00 +21°C° 0 mm 1 mps 730 mmHg 80%
    19:00 +20°C° 0 mm 1 mps 730 mmHg 87%
    20:00 +19°C° 0 mm 1 mps 730 mmHg 89%
    21:00 +18°C° 0 mm 1 mps 730 mmHg 91%
    22:00 +16°C° 0 mm 1 mps 730 mmHg 93%
    23:00 +16°C° 0 mm 1 mps 730 mmHg 93%
    Show more